Simultaneous Nadir Overpasses (SNOs) Predictions

Prediction of SNOs between GOES-14 and AQUA Satellite Orbit:

Table of predicted SNOs for the next 14.0 days since TLE Epoch: 9/24/2022
Index Date Time (GOES-14) GOES-14 Lat,Lon AQUA Lat,Lon Distance(km) Time Diff (sec)
1 09/25/2022 20:37:19 -0.30,-104.42 -0.30,-104.44 2.53 80
2 09/27/2022 20:27:14 -0.31,-104.41 0.34,-101.33 350.05 80
3 09/28/2022 08:48:21 0.28,-104.39 0.75,-106.45 234.24 80
4 09/30/2022 08:32:56 0.29,-104.37 0.09,-103.34 116.65 80
5 09/30/2022 20:54:11 -0.27,-104.36 -1.14,-108.51 471.79 80
6 10/02/2022 08:20:11 0.29,-104.35 -0.58,-100.24 467.17 80
7 10/02/2022 20:41:25 -0.27,-104.34 -0.52,-105.39 120.40 80
8 10/04/2022 20:31:21 -0.26,-104.32 0.18,-102.30 230.80 80
9 10/05/2022 08:52:27 0.24,-104.36 0.91,-107.41 347.64 80
10 10/07/2022 08:37:01 0.24,-104.34 0.25,-104.31 4.06 80
